Location: Smoky Mountain Stargaze
(35.4252°N, 83.3329°W)
Time: 12:06:18
(UTC-04:00)

Amateur Radio Satellites - All Passes

Search period start: 29 June 2017 11:36
Search period end: 30 June 2017 11:36
Location: Smoky Mountain Stargaze, 35.4252°N, 83.3329°W

Satellite Date Start Highest point End Downlink Frequencies (MHz)
Time Altitude Azimuth
EO-79 29 Jun 11:43:30 11:46:23 18° 68° (ENE) 11:49:18 145.935-145.965
DUCHIFAT 1 29 Jun 11:52:16 11:55:09 18° 68° (ENE) 11:58:02 145.980
FO-29 29 Jun 11:55:47 12:00:28 22° 269° (W) 12:05:35 435.910
ESTCUBE 1 29 Jun 11:57:47 12:00:09 14° 93° (E) 12:02:30 437.505/2401.250
NANOSAT C BR1 29 Jun 12:02:26 12:05:59 27° 71° (ENE) 12:09:33 145.865
TIGRISAT 29 Jun 12:06:02 12:08:42 15° 268° (W) 12:11:23 435.000
AIST 2D 29 Jun 12:15:17 12:18:49 78° 258° (WSW) 12:22:23 435.315
EO-88 29 Jun 12:17:58 12:20:34 19° 290° (WNW) 12:23:09 145.990 - 145.960
DELFI C3 29 Jun 12:23:15 12:25:05 13° 293° (WNW) 12:26:56 145.870
LO-87 29 Jun 12:25:33 12:29:08 54° 100° (E) 12:32:42 145.935 - 145.965
POLYITAN 1 29 Jun 12:43:27 12:47:43 86° 255° (WSW) 12:52:02 437.675
BUGSAT 1 29 Jun 12:44:42 12:47:45 20° 69° (ENE) 12:50:51 437.445
PCSat 29 Jun 12:44:55 12:49:56 38° 302° (WNW) 12:55:00 145.827
QB50P2 29 Jun 12:54:41 12:58:52 56° 260° (W) 13:03:05 145.880/145.840
SPROUT 29 Jun 13:04:20 13:07:25 19° 94° (E) 13:10:30 437.525
Oscar 19 29 Jun 13:15:03 13:18:45 20° 66° (ENE) 13:22:25 437.125/150
JUGNU 29 Jun 13:15:05 13:18:46 17° 176° (S) 13:22:29 437.505
VELOX 1 29 Jun 13:15:49 13:19:24 24° 96° (E) 13:22:58 145.980
EO-79 29 Jun 13:18:03 13:21:52 32° 262° (W) 13:25:43 145.935-145.965
ISS 29 Jun 13:21:36 13:22:50 12° 24° (NNE) 13:24:05 437.550
DUCHIFAT 1 29 Jun 13:26:45 13:30:32 32° 262° (W) 13:34:22 145.980
ESTCUBE 1 29 Jun 13:32:52 13:37:07 44° 287° (WNW) 13:41:22 437.505/2401.250
NANOSAT C BR1 29 Jun 13:38:22 13:41:37 21° 265° (W) 13:44:53 145.865
Tancredo 1 29 Jun 13:45:28 13:48:10 28° 36° (NE) 13:50:49 437.200
SO-50 29 Jun 14:01:20 14:05:54 85° 116° (ESE) 14:10:26 436.795
AO-7 29 Jun 14:14:50 14:18:59 15° 52° (NE) 14:23:08 .
BUGSAT 1 29 Jun 14:19:22 14:22:54 27° 263° (W) 14:26:30 437.445
SPROUT 29 Jun 14:39:33 14:43:19 30° 289° (WNW) 14:47:04 437.525
Gurwin Techsat 1B 29 Jun 14:41:33 14:46:51 88° 76° (ENE) 14:52:12 435.225
50 SAT 29 Jun 14:42:13 14:45:35 55° 284° (WNW) 14:48:55 437.505
VELOX 1 29 Jun 14:52:03 14:55:45 26° 290° (WNW) 14:59:27 145.980
Oscar 19 29 Jun 14:52:51 14:57:43 42° 261° (W) 15:02:35 437.125/150
ISS 29 Jun 14:56:31 14:59:49 75° 41° (NE) 15:03:06 437.550
DX 1 29 Jun 14:56:39 15:01:02 76° 284° (WNW) 15:05:23 434.975-435.025
JUGNU 29 Jun 15:03:32 15:07:03 16° 186° (S) 15:10:35 437.505
UKube-1 29 Jun 15:04:38 15:08:59 88° 110° (ESE) 15:13:18 .
SRMSAT 29 Jun 15:08:44 15:12:01 15° 171° (S) 15:15:18 437.500
Tancredo 1 29 Jun 15:21:18 15:23:35 20° 230° (SW) 15:25:52 437.200
ITAMSAT 1 29 Jun 15:39:58 15:44:45 38° 70° (ENE) 15:49:33 435.822/435.867
SO-50 29 Jun 15:45:29 15:46:56 11° 316° (NW) 15:48:22 436.795
AO-7 29 Jun 16:02:03 16:10:20 75° 70° (ENE) 16:18:40 .
ITUPSAT 1 29 Jun 16:29:54 16:34:39 62° 101° (ESE) 16:39:21 437.325
BEESAT 29 Jun 16:36:48 16:41:36 76° 103° (ESE) 16:46:20 436.000
SRMSAT 29 Jun 16:56:38 17:00:27 17° 182° (S) 17:04:15 437.500
MOZHAYETS 4 29 Jun 17:05:17 17:09:52 78° 285° (WNW) 17:14:24
ITAMSAT 1 29 Jun 17:20:19 17:24:16 22° 265° (W) 17:28:16 435.822/435.867
XW-2D 29 Jun 17:56:51 17:58:45 13° 68° (ENE) 18:00:39 145.860 - 145.880
AO-7 29 Jun 17:58:01 18:03:43 20° 266° (W) 18:09:28 .
CUBESAT XI-V 29 Jun 17:58:15 18:02:50 68° 101° (E) 18:07:25 437.345
XW-2B 29 Jun 18:05:23 18:07:50 17° 69° (ENE) 18:10:18 145.730 - 145.750
KKS-1 29 Jun 18:06:04 18:10:27 51° 100° (E) 18:14:49 437.445
LilacSat-2 29 Jun 18:09:44 18:12:36 20° 70° (ENE) 18:15:28 437.200
ITUPSAT 1 29 Jun 18:09:53 18:11:54 13° 296° (WNW) 18:13:54 437.325
BEESAT 29 Jun 18:18:05 18:18:40 10° 298° (WNW) 18:19:15 436.000
XW-2C 29 Jun 18:20:16 18:23:28 26° 72° (ENE) 18:26:40 145.795 - 145.815
STARS 29 Jun 18:23:11 18:27:09 31° 98° (E) 18:31:05 437.465
KAITUO 1B 29 Jun 18:23:17 18:26:09 21° 71° (ENE) 18:29:01 145.475/437.950
DOVE 4 29 Jun 18:23:35 18:27:44 74° 77° (ENE) 18:32:03 437.250
SRMSAT 29 Jun 18:46:17 18:48:51 13° 192° (SSW) 18:51:27 437.500
RS-15 29 Jun 18:47:41 18:51:59 13° 95° (E) 18:56:18 29.354- 29.394
NUDT-PHONESAT 29 Jun 18:51:26 18:55:03 48° 75° (ENE) 18:58:40 437.300
CUTE-I 29 Jun 18:54:50 19:00:05 66° 73° (ENE) 19:05:23 437.470
CUTE 1.7 + AOD 2 29 Jun 19:01:36 19:03:20 12° 66° (ENE) 19:05:02 437.475
HO-68 29 Jun 19:04:22 19:10:24 30° 64° (ENE) 19:16:27 435.675
XW-2F 29 Jun 19:21:33 19:25:14 47° 260° (W) 19:28:56 145.980 - 146.000
XW-2D 29 Jun 19:29:04 19:32:36 34° 262° (W) 19:36:07 145.860 - 145.880
AO-85 29 Jun 19:37:04 19:40:46 32° 114° (ESE) 19:44:19 145.980
XW-2B 29 Jun 19:38:27 19:41:46 28° 263° (W) 19:45:06 145.730 - 145.750
CUBESAT XI-V 29 Jun 19:38:47 19:39:35 10° 296° (WNW) 19:40:24 437.345
LilacSat-2 29 Jun 19:43:38 19:46:43 23° 264° (W) 19:49:48 437.200
KKS-1 29 Jun 19:44:24 19:46:32 13° 295° (WNW) 19:48:38 437.445
PCSat 29 Jun 19:54:17 19:56:34 13° 46° (NE) 19:58:51 145.827
XW-2C 29 Jun 19:55:00 19:57:37 17° 265° (W) 20:00:13 145.795 - 145.815
KAITUO 1B 29 Jun 19:57:08 20:00:01 21° 264° (W) 20:02:54 145.475/437.950
CUBEBUG 2 29 Jun 19:58:12 20:02:13 30° 71° (ENE) 20:06:19 437.445
STARS 29 Jun 20:00:00 20:03:14 20° 292° (WNW) 20:06:28 437.465
XW-2A 29 Jun 20:02:13 20:05:28 41° 75° (ENE) 20:08:45 145.665 - 145.685
BEESAT 3 29 Jun 20:05:20 20:09:01 39° 114° (ESE) 20:12:46 437.485
SEEDS 29 Jun 20:08:10 20:12:10 46° 74° (ENE) 20:16:11 437.485
ZACube-1 29 Jun 20:08:43 20:10:40 13° 65° (ENE) 20:12:38 437.345
UWE-3 29 Jun 20:21:57 20:26:03 32° 71° (ENE) 20:30:12 435.000/436.395/437.385
STRAND 1 29 Jun 20:23:44 20:28:24 34° 98° (E) 20:33:01 437.568
O/OREOS (USA 219) 29 Jun 20:27:46 20:30:35 16° 100° (E) 20:33:23 437.305
CUTE 1.7 + AOD 2 29 Jun 20:34:35 20:38:42 48° 260° (W) 20:42:49 437.475
NO-84 29 Jun 20:35:00 20:38:35 58° 129° (SE) 20:42:30 435.350 FM
CUTE-I 29 Jun 20:38:12 20:40:32 13° 268° (W) 20:42:52 437.470
AAUSAT CUBESAT 2 29 Jun 20:44:58 20:48:59 56° 75° (ENE) 20:53:01 437.432
RS-15 29 Jun 20:50:10 21:02:05 70° 113° (ESE) 21:14:19 29.354- 29.394
HO-68 29 Jun 20:50:56 20:57:47 47° 260° (W) 21:04:42 435.675
AO-73 29 Jun 21:04:08 21:08:29 46° 74° (ENE) 21:12:52 145.935
BEESAT 2 29 Jun 21:14:46 21:18:43 85° 118° (ESE) 21:22:46 435.950
AO-85 29 Jun 21:18:16 21:21:10 19° 308° (NW) 21:24:00 145.980
Oscar 11 29 Jun 21:25:43 21:29:59 62° 76° (ENE) 21:34:17 .
DELFI C3 29 Jun 21:30:35 21:32:50 15° 68° (ENE) 21:35:05 145.870
CUBEBUG 2 29 Jun 21:35:08 21:38:47 23° 266° (W) 21:42:30 437.445
PCSat 29 Jun 21:35:16 21:40:44 88° 64° (ENE) 21:46:08 145.827
ZACube-1 29 Jun 21:41:55 21:46:24 57° 260° (W) 21:50:56 437.345
BEESAT 3 29 Jun 21:44:10 21:46:45 16° 310° (NW) 21:49:20 437.485
SEEDS 29 Jun 21:46:35 21:48:03 12° 268° (W) 21:49:31 437.485
YUBILEINY 29 Jun 21:58:42 22:07:04 51° 89° (E) 22:15:30 435.215
UWE-3 29 Jun 21:59:00 22:02:29 21° 266° (W) 22:06:01 435.000/436.395/437.385
STRAND 1 29 Jun 22:03:14 22:07:21 25° 292° (WNW) 22:11:26 437.568
O/OREOS (USA 219) 29 Jun 22:05:22 22:09:37 38° 295° (WNW) 22:13:51 437.305
NO-84 29 Jun 22:13:45 22:16:30 18° 328° (NNW) 22:19:23 435.350 FM
TIGRISAT 29 Jun 22:24:16 22:25:58 12° 91° (E) 22:27:38 435.000
PRISM 29 Jun 22:26:04 22:27:32 12° 93° (E) 22:29:01 437.425
SO-50 29 Jun 22:35:39 22:39:43 32° 54° (NE) 22:43:48 436.795
AO-73 29 Jun 22:42:31 22:44:54 14° 268° (W) 22:47:18 145.935
EO-88 29 Jun 22:51:19 22:54:58 73° 259° (W) 22:58:38 145.990 - 145.960
LO-87 29 Jun 23:00:03 23:01:55 14° 69° (ENE) 23:03:48 145.935 - 145.965
DELFI C3 29 Jun 23:03:46 23:07:18 32° 263° (W) 23:10:49 145.870
RS-15 29 Jun 23:04:33 23:15:30 37° 316° (NW) 23:26:40 29.354- 29.394
UNISAT 6 29 Jun 23:05:36 23:09:55 40° 98° (E) 23:14:08 437.425
FO-29 29 Jun 23:05:54 23:13:45 66° 101° (E) 23:21:13 435.910
M-CUBED/EXP-1 PRIME 29 Jun 23:11:16 23:15:09 58° 106° (ESE) 23:19:21 437.505
YUBILEINY 29 Jun 23:56:35 00:04:06 31° 287° (WNW) 00:11:42 435.215
SPROUT 29 Jun 23:57:05 23:57:48 10° 65° (ENE) 23:58:30 437.525
TIGRISAT 29 Jun 23:58:27 00:02:57 53° 286° (WNW) 00:07:19 435.000
PRISM 29 Jun 23:59:04 00:03:00 45° 286° (WNW) 00:06:56 437.425
VELOX 1 30 Jun 00:11:08 00:13:36 15° 66° (ENE) 00:16:04 145.980
SO-50 30 Jun 00:16:24 00:20:00 23° 249° (WSW) 00:23:36 436.795
ESTCUBE 1 30 Jun 00:28:43 00:33:12 72° 259° (WSW) 00:37:41 437.505/2401.250
LO-87 30 Jun 00:31:58 00:35:03 28° 263° (W) 00:38:11 145.935 - 145.965
POLYITAN 1 30 Jun 00:32:12 00:35:15 19° 94° (E) 00:38:18 437.675
QB50P2 30 Jun 00:42:49 00:46:30 28° 97° (E) 00:50:10 145.880/145.840
UNISAT 6 30 Jun 00:43:18 00:46:14 17° 293° (WNW) 00:49:08 437.425
M-CUBED/EXP-1 PRIME 30 Jun 00:48:27 00:49:12 10° 297° (WNW) 00:49:58 437.505
FO-29 30 Jun 00:51:59 00:58:01 25° 297° (WNW) 01:03:56 435.910
EO-79 30 Jun 01:05:11 01:09:19 48° 100° (E) 01:13:25 145.935-145.965
50 SAT 30 Jun 01:11:10 01:14:01 26° 72° (ENE) 01:16:53 437.505
DUCHIFAT 1 30 Jun 01:13:12 01:17:19 47° 100° (E) 01:21:22 145.980
AIST 2D 30 Jun 01:16:30 01:19:45 38° 286° (WNW) 01:22:59 435.315
NANOSAT C BR1 30 Jun 01:24:22 01:28:37 75° 101° (E) 01:32:51 145.865
RS-15 30 Jun 01:26:57 01:33:23 15° 349° (N) 01:39:47 29.354- 29.394
SPROUT 30 Jun 01:28:55 01:33:07 60° 260° (W) 01:37:22 437.525
VELOX 1 30 Jun 01:45:31 01:49:38 42° 261° (W) 01:53:49 145.980
DX 1 30 Jun 01:48:47 01:53:02 61° 74° (ENE) 01:57:19 434.975-435.025
UKube-1 30 Jun 01:55:48 01:59:55 47° 73° (ENE) 02:04:04 .
BUGSAT 1 30 Jun 02:03:19 02:07:28 51° 100° (E) 02:11:32 437.445
POLYITAN 1 30 Jun 02:07:19 02:11:02 29° 289° (WNW) 02:14:43 437.675
QB50P2 30 Jun 02:18:56 02:22:05 20° 291° (WNW) 02:25:14 145.880/145.840
EO-79 30 Jun 02:42:45 02:44:36 13° 294° (WNW) 02:46:28 145.935-145.965
50 SAT 30 Jun 02:45:20 02:46:48 12° 266° (W) 02:48:18 437.505
DUCHIFAT 1 30 Jun 02:50:38 02:52:30 13° 294° (WNW) 02:54:22 145.980
Gurwin Techsat 1B 30 Jun 03:01:01 03:06:07 45° 99° (E) 03:11:10 435.225
Oscar 19 30 Jun 03:07:03 03:12:12 86° 102° (ESE) 03:17:19 437.125/150
NO-84 30 Jun 03:11:47 03:14:36 17° 31° (NNE) 03:17:25 435.350 FM
ITUPSAT 1 30 Jun 03:33:23 03:38:01 50° 73° (ENE) 03:42:41 437.325
UKube-1 30 Jun 03:34:31 03:36:10 12° 267° (W) 03:37:49 .
BEESAT 30 Jun 03:39:52 03:44:34 61° 74° (ENE) 03:49:18 436.000
BUGSAT 1 30 Jun 03:40:44 03:42:19 12° 295° (WNW) 03:43:52 437.445
RS-15 30 Jun 03:44:36 03:53:05 21° 27° (NNE) 04:01:18 29.354- 29.394
ITAMSAT 1 30 Jun 03:56:52 04:00:14 17° 94° (E) 04:03:36 435.822/435.867
MOZHAYETS 4 30 Jun 04:03:36 04:08:12 69° 75° (ENE) 04:12:49
AO-7 30 Jun 04:07:57 04:15:01 29° 97° (E) 04:22:00 .
AO-85 30 Jun 04:11:26 04:13:35 14° 49° (NE) 04:15:49 145.980
BEESAT 3 30 Jun 04:26:54 04:27:53 11° 46° (NE) 04:28:53 437.485
Gurwin Techsat 1B 30 Jun 04:41:52 04:45:41 20° 294° (WNW) 04:49:29 435.225
NO-84 30 Jun 04:48:19 04:52:43 87° 229° (SW) 04:56:59 435.350 FM
CUBESAT XI-V 30 Jun 04:58:18 05:02:42 46° 74° (ENE) 05:07:06 437.345
KKS-1 30 Jun 05:01:10 05:05:06 32° 71° (ENE) 05:09:03 437.445
ITUPSAT 1 30 Jun 05:13:32 05:16:05 14° 267° (W) 05:18:37 437.325
STARS 30 Jun 05:17:19 05:20:29 20° 68° (ENE) 05:23:40 437.465
BEESAT 30 Jun 05:21:06 05:22:41 11° 268° (W) 05:24:15 436.000
ITAMSAT 1 30 Jun 05:34:53 05:39:55 49° 288° (WNW) 05:44:54 435.822/435.867
BEESAT 2 30 Jun 05:35:51 05:38:53 20° 51° (NE) 05:41:53 435.950
AO-85 30 Jun 05:50:06 05:54:14 56° 243° (WSW) 05:58:40 145.980
RS-15 30 Jun 05:56:48 06:08:50 62° 55° (NE) 06:20:09 29.354- 29.394
AO-7 30 Jun 05:59:55 06:08:00 55° 293° (WNW) 06:16:04 .
BEESAT 3 30 Jun 06:01:56 06:05:55 68° 243° (WSW) 06:09:48 437.485
Tancredo 1 30 Jun 06:13:28 06:16:13 33° 133° (SE) 06:18:59 437.200
DOVE 4 30 Jun 06:24:49 06:29:14 29° 96° (E) 06:33:44 437.250
CUBESAT XI-V 30 Jun 06:37:46 06:40:15 14° 267° (W) 06:42:46 437.345
KKS-1 30 Jun 06:38:30 06:41:40 19° 265° (W) 06:44:51 437.445
O/OREOS (USA 219) 30 Jun 06:39:43 06:42:59 20° 61° (ENE) 06:46:15 437.305
STARS 30 Jun 06:52:42 06:56:34 31° 262° (W) 07:00:31 437.465
XW-2F 30 Jun 06:57:15 07:00:00 19° 95° (E) 07:02:44 145.980 - 146.000
XW-2D 30 Jun 07:04:36 07:07:48 26° 96° (E) 07:10:59 145.860 - 145.880
BEESAT 2 30 Jun 07:13:04 07:16:40 31° 247° (WSW) 07:20:13 435.950
XW-2B 30 Jun 07:13:34 07:17:00 33° 98° (E) 07:20:24 145.730 - 145.750
CUTE-I 30 Jun 07:15:16 07:20:06 33° 97° (E) 07:24:55 437.470
LilacSat-2 30 Jun 07:18:59 07:22:36 43° 99° (E) 07:26:11 437.200
XW-2C 30 Jun 07:29:07 07:32:49 57° 100° (E) 07:36:29 145.795 - 145.815
KAITUO 1B 30 Jun 07:30:18 07:33:50 42° 99° (E) 07:37:20 145.475/437.950
ISS 30 Jun 07:34:09 07:37:22 61° 320° (NW) 07:40:37 437.550
STRAND 1 30 Jun 07:36:33 07:41:13 36° 70° (ENE) 07:45:53 437.568
Tancredo 1 30 Jun 07:49:36 07:51:50 19° 328° (NNW) 07:54:05 437.200
NUDT-PHONESAT 30 Jun 07:58:19 08:02:00 75° 283° (WNW) 08:05:38 437.300
DOVE 4 30 Jun 08:02:24 08:06:46 30° 289° (WNW) 08:11:16 437.250
RS-15 30 Jun 08:10:17 08:20:29 35° 256° (WSW) 08:30:18 29.354- 29.394
YUBILEINY 30 Jun 08:13:49 08:20:07 21° 68° (ENE) 08:26:20 435.215
O/OREOS (USA 219) 30 Jun 08:18:26 08:22:26 33° 256° (WSW) 08:26:25 437.305
HO-68 30 Jun 08:21:50 08:28:31 41° 99° (E) 08:35:09 435.675
CUTE 1.7 + AOD 2 30 Jun 08:22:28 08:26:16 33° 97° (E) 08:30:04 437.475
XW-2F 30 Jun 08:31:09 08:34:01 21° 289° (WNW) 08:36:53 145.980 - 146.000
AAUSAT CUBESAT 2 30 Jun 08:32:27 08:33:29 11° 92° (E) 08:34:30 437.432
XW-2D 30 Jun 08:39:23 08:41:44 16° 291° (WNW) 08:44:06 145.860 - 145.880
XW-2B 30 Jun 08:49:03 08:50:51 13° 292° (WNW) 08:52:38 145.730 - 145.750
CUTE-I 30 Jun 08:55:31 08:59:58 27° 292° (WNW) 09:04:24 437.470
LilacSat-2 30 Jun 08:55:43 08:56:26 10° 293° (WNW) 08:57:09 437.200
AO-73 30 Jun 08:58:04 08:58:57 11° 91° (E) 08:59:51 145.935
XW-2A 30 Jun 08:59:18 09:02:41 71° 101° (ESE) 09:06:02 145.665 - 145.685
KAITUO 1B 30 Jun 09:07:03 09:07:24 10° 293° (WNW) 09:07:44 145.475/437.950
ISS 30 Jun 09:13:46 09:14:25 10° 337° (NNW) 09:15:04 437.550
FO-29 30 Jun 09:16:16 09:20:44 20° 60° (ENE) 09:25:32 435.910
STRAND 1 30 Jun 09:16:24 09:20:25 23° 265° (W) 09:24:26 437.568
Oscar 11 30 Jun 09:17:26 09:19:45 14° 93° (E) 09:22:04 .
CUBEBUG 2 30 Jun 09:27:56 09:32:36 82° 283° (WNW) 09:37:04 437.445
SEEDS 30 Jun 09:30:11 09:34:16 56° 285° (WNW) 09:38:20 437.485
ZACube-1 30 Jun 09:33:39 09:37:38 34° 97° (E) 09:41:30 437.345
UWE-3 30 Jun 09:50:28 09:54:59 78° 284° (WNW) 09:59:21 435.000/436.395/437.385
M-CUBED/EXP-1 PRIME 30 Jun 09:55:17 09:58:17 35° 69° (ENE) 10:01:18 437.505
CUTE 1.7 + AOD 2 30 Jun 09:59:06 10:01:48 17° 292° (WNW) 10:04:30 437.475
UNISAT 6 30 Jun 10:01:21 10:05:08 26° 69° (ENE) 10:08:59 437.425
AAUSAT CUBESAT 2 30 Jun 10:05:11 10:09:09 47° 286° (WNW) 10:13:06 437.432
YUBILEINY 30 Jun 10:08:55 10:17:42 74° 267° (W) 10:26:24 435.215
HO-68 30 Jun 10:09:46 10:16:02 34° 295° (WNW) 10:22:18 435.675
EO-88 30 Jun 10:25:06 10:26:17 11° 93° (E) 10:27:28 145.990 - 145.960
AO-73 30 Jun 10:31:16 10:35:31 53° 285° (WNW) 10:39:38 145.935
PCSat 30 Jun 10:32:38 10:36:06 17° 104° (ESE) 10:39:33 145.827
DELFI C3 30 Jun 10:43:18 10:46:56 34° 98° (E) 10:50:34 145.870
PRISM 30 Jun 10:44:43 10:48:45 80° 77° (ENE) 10:52:49 437.425
Oscar 11 30 Jun 10:52:00 10:56:01 40° 287° (WNW) 11:00:01 .
TIGRISAT 30 Jun 10:53:08 10:57:46 88° 78° (ENE) 11:02:29 435.000
FO-29 30 Jun 10:58:52 11:04:57 64° 260° (W) 11:11:54 435.910
ZACube-1 30 Jun 11:10:40 11:13:36 18° 292° (WNW) 11:16:29 437.345
JUGNU 30 Jun 11:13:11 11:15:22 12° 167° (SSE) 11:17:34 437.505
POLYITAN 1 30 Jun 11:24:08 11:24:50 10° 65° (ENE) 11:25:32 437.675
